Location: Newark
(52.3500°N, 175.9667°E)
Time: 00:16:56
(UTC+00:00)

Vanguard 1 - Pass Details

Date: 19 April 2021
Orbit: 649 x 3834 km, 34.2° (Epoch: 04 May)

Event Time Altitude Azimuth Distance (km) Brightness Sun altitude
Rises 10:04:58 0° 277° (W) 7,934 15.3 -20.4°
Reaches altitude 10° 10:15:23 10° 257° (WSW) 6,901 14.6 -21.3°
Maximum altitude 10:23:24 13° 236° (SW) 6,392 14.1 -21.9°
Drops below altitude 10° 10:30:49 10° 214° (SW) 6,265 13.9 -22.5°
Enters shadow 10:36:24 - 198° (SSW) 6,439 13.8 -22.9°
Sets 10:39:17 0° 191° (S) 6,624 - -23.1°
